Wind_Speed
77 79 76 74 74 74 76 75 76 75 77 77 80 81 83 84 85 86 87 86 87 89 90 93 94 93 91
82 81 80 78 82 83 82 82 82 80 80 81 80 83 85 87 89 89 89 90 92 93 95 93 92 92 90
79 81 83 84 83 83 83 84 84 85 86 83 85 85 84 87 89 90 91 92 93 93 93 92 91 88 86
80 80 81 82 84 85 86 85 86 86 86 87 87 89 89 86 85 88 89 88 88 88 88 87 85 82 81
77 78 79 80 81 83 85 85 85 85 88 88 87 87 86 83 79 80 81 80 80 81 82 82 80 78 76
72 73 74 75 77 79 80 81 82 83 82 80 79 76 73 73 74 74 74 74 73 72 70 69 68 68 67
72 73 73 73 74 76 77 76 75 73 70 70 71 70 69 68 67 66 66 65 65 64 63 63 63 62 63
69 70 69 68 67 67 66 65 65 66 66 64 63 62 61 60 59 59 58 57 58 59 59 60 61 62 62
59 59 59 59 59 59 59 61 60 59 59 57 56 56 55 53 52 51 50 50 51 52 54 55 56 57 59
52 52 52 54 55 56 56 55 54 52 51 50 49 47 47 45 43 42 43 44 44 46 47 49 50 51 53
49 51 51 52 51 50 49 47 47 46 44 41 39 38 37 38 37 36 37 38 39 41 43 45 47 48 50
47 47 46 45 43 43 43 42 40 38 35 34 33 32 32 33 34 36 36 38 40 43 46 49 52 54 56
38 37 37 39 40 39 35 33 31 30 30 30 30 31 33 34 36 39 42 45 48 51 53 57 60 62 63
35 37 39 38 34 31 29 28 27 27 28 29 31 33 36 39 42 45 48 52 55 58 60 62 65 65 66
36 35 33 30 27 26 27 27 27 28 29 31 34 37 41 45 49 52 56 58 61 62 63 62 66 66 66
33 31 28 26 26 27 27 28 29 31 34 36 39 43 47 51 53 55 58 60 61 62 63 62 60 65 64
29 28 27 27 27 27 28 30 32 35 38 41 44 49 53 53 55 59 59 60 61 61 61 61 62 61 66
Wind_Direction
263 262 264 266 267 268 270 270 271 270 268 268 267 268 269 269 269 268 268 267 267 266 267 268 268 269 271
261 263 265 266 266 268 269 271 272 273 275 273 271 270 269 268 268 269 269 269 269 269 269 271 271 271 272
261 261 263 265 265 266 268 268 269 270 271 271 271 272 271 269 268 268 267 268 268 269 271 273 273 272 270
259 261 262 263 265 267 268 270 271 271 273 273 273 273 274 275 272 269 270 270 270 271 271 272 272 271 270
260 262 264 265 266 267 269 270 271 272 272 273 274 276 276 275 274 272 272 271 271 271 270 270 270 269 268
263 264 266 267 267 267 269 270 271 273 273 273 274 274 275 275 275 274 273 271 270 268 268 267 267 266 265
265 267 269 268 269 270 270 271 273 273 274 275 275 277 276 275 275 274 272 271 269 267 266 264 264 264 264
267 269 270 270 270 271 273 274 274 275 275 277 278 276 276 276 275 274 272 269 267 266 265 265 265 265 266
270 270 271 272 274 274 274 274 275 276 277 277 276 276 276 275 273 272 271 269 267 266 266 266 267 267 267
273 274 274 273 274 274 275 275 275 275 276 276 275 273 272 273 273 272 272 271 270 270 269 269 269 269 269
276 275 275 275 274 274 274 274 274 274 272 270 270 271 272 273 271 271 273 273 274 273 274 274 273 272 272
277 275 274 274 273 273 273 273 270 269 269 269 269 269 272 274 276 278 278 279 279 280 280 279 279 278 276
278 276 274 273 273 271 268 268 270 270 270 270 273 276 278 280 282 283 283 283 283 282 282 282 281 279 278
280 277 274 270 267 267 270 271 270 271 274 276 279 280 281 282 283 284 285 285 284 284 283 283 281 280 278
278 273 270 269 269 271 273 272 272 274 278 280 280 282 283 285 286 286 286 287 287 286 285 284 283 282 281
275 272 269 270 271 272 273 273 276 276 279 281 283 285 286 288 288 289 289 289 288 287 287 285 284 284 282
274 270 270 269 271 274 273 276 278 279 283 285 286 288 290 291 292 293 292 291 291 290 289 286 285 283 285
Height
10441 10443 10447 10448 10448 10448 10447 10449 10448 10447 10447 10447 10444 10443 10442 10441 10440 10440 10440 10440 10439 10438 10438 10437 10436 10435 10440
10421 10424 10426 10429 10429 10429 10429 10427 10427 10426 10425 10423 10422 10421 10419 10417 10417 10417 10417 10417 10414 10413 10412 10414 10412 10411 10413
10405 10406 10407 10407 10408 10407 10407 10407 10404 10403 10402 10402 10399 10397 10395 10392 10392 10392 10391 10390 10389 10387 10388 10388 10387 10386 10386
10386 10387 10387 10387 10386 10385 10384 10384 10382 10380 10379 10376 10374 10372 10370 10368 10367 10365 10365 10364 10364 10363 10362 10362 10361 10361 10361
10367 10367 10368 10368 10368 10366 10365 10363 10361 10359 10356 10354 10352 10349 10346 10344 10342 10340 10339 10339 10338 10338 10337 10337 10337 10338 10337
10348 10348 10348 10348 10348 10346 10345 10343 10341 10338 10334 10331 10329 10327 10324 10321 10320 10318 10316 10315 10315 10315 10315 10315 10315 10316 10317
10328 10329 10329 10328 10327 10326 10324 10321 10319 10316 10313 10310 10307 10304 10302 10300 10298 10296 10295 10294 10294 10294 10295 10295 10295 10296 10296
10309 10309 10309 10308 10307 10306 10304 10302 10299 10296 10293 10291 10288 10286 10283 10281 10280 10279 10277 10275 10275 10275 10275 10276 10277 10277 10277
10292 10291 10290 10290 10289 10288 10286 10283 10281 10279 10276 10273 10272 10269 10266 10266 10264 10263 10262 10261 10260 10260 10260 10260 10260 10259 10259
10276 10276 10276 10274 10273 10271 10269 10266 10264 10262 10260 10258 10256 10255 10252 10252 10251 10251 10249 10248 10247 10246 10245 10244 10244 10243 10242
10262 10261 10260 10258 10256 10254 10252 10250 10249 10248 10246 10245 10243 10241 10240 10238 10239 10238 10237 10235 10234 10233 10231 10229 10229 10228 10227
10248 10246 10243 10241 10240 10239 10239 10238 10236 10235 10233 10233 10232 10231 10230 10228 10227 10227 10226 10224 10223 10221 10219 10216 10214 10212 10209
10233 10231 10229 10229 10229 10229 10227 10226 10225 10224 10223 10223 10223 10222 10220 10219 10218 10216 10214 10212 10208 10206 10205 10200 10196 10192 10189
10221 10220 10220 10220 10219 10217 10216 10216 10216 10215 10215 10214 10213 10212 10211 10208 10206 10203 10200 10197 10193 10189 10187 10182 10175 10170 10167
10212 10211 10210 10209 10208 10208 10208 10207 10207 10206 10205 10205 10203 10201 10199 10196 10193 10189 10185 10180 10175 10170 10165 10161 10153 10147 10143
10203 10201 10200 10200 10199 10199 10199 10198 10197 10197 10196 10195 10193 10190 10187 10183 10178 10174 10168 10162 10156 10148 10143 10139 10136 10124 10121
10194 10192 10191 10191 10191 10191 10190 10189 10189 10187 10186 10183 10180 10176 10172 10168 10163 10156 10150 10142 10135 10129 10121 10117 10112 10111 10099